CW2613 Weather Reports


Display with metric or nautical units.
time (UTC)temp
F
wind
direction
speed
MPH
gust
MPH
rain 1hr
in
rain 24hr
in
rain mn
in
humidity
%
barometer
mb
20260903154525 91 175 0.0 0.0 0.00 0.00 0.00 58 1013.5
20260903153018 90 173 0.0 0.0 0.00 0.00 0.00 56 1013.6
20260903151512 89 193 0.0 0.0 0.00 0.00 0.00 48 1013.8
20260903150011 89 155 0.0 0.0 0.00 0.00 0.00 44 1013.9
20260903144504 88 150 0.0 0.0 0.00 0.00 0.00 43 1013.8
20260903143101 88 136 0.0 0.0 0.00 0.00 0.00 36 1013.7
20260903141555 87 170 0.0 0.0 0.00 0.00 0.00 35 1013.7
20260903140059 86 195 0.0 0.0 0.00 0.00 0.00 28 1013.6
20260903134547 86 202 0.0 0.0 0.00 0.00 0.00 14 1013.4
20260903133042 84 174 0.0 0.0 0.00 0.00 0.00 1 1013.3
20260903131538 82 188 0.0 0.0 0.00 0.00 0.00 1 1013.2
20260903130034 82 187 0.0 0.0 0.00 0.00 0.00 1 1013.2
20260903124529 80 174 0.0 0.0 0.00 0.00 0.00 1 1013.3
20260903123034 79 176 0.0 0.0 0.00 0.00 0.00 1 1013.4
20260903121520 77 176 0.0 0.0 0.00 0.00 0.00 1 1013.2
20260903120013 77 175 0.0 0.0 0.00 0.00 0.00 1 1013.0
20260903114510 76 175 0.0 0.0 0.00 0.00 0.00 1 1013.0
20260903113017 0 0.0 0.0 0.00 0.00 0.00 1012.9
20260903111501 0 0.0 0.0 0.00 0.00 0.00 1012.6
20260903110104 0 0.0 0.0 0.00 0.00 0.00 1012.4
20260903104600 0 0.0 0.0 0.00 0.00 0.00 1012.2
20260903103049 0 0.0 0.0 0.00 0.00 0.00 1012.2
20260903101545 0 0.0 0.0 0.00 0.00 0.00 1011.9
20260903100039 0 0.0 0.0 0.00 0.00 0.00 1011.7
20260903094541 0 0.0 0.0 0.00 0.00 0.00 1011.6
20260903093047 0 0.0 0.0 0.00 0.00 0.00 1011.7
20260903091526 0 0.0 0.0 0.00 0.00 0.00 1011.6
20260903090027 0 0.0 0.0 0.00 0.00 0.00 1011.4
20260903084528 0 0.0 0.0 0.00 0.00 0.00 1011.4
20260903083013 0 0.0 0.0 0.00 0.00 0.00 1011.5
20260903081512 0 0.0 0.0 0.00 0.00 0.00 1011.5
20260903080004 0 0.0 0.0 0.00 0.00 0.00 1011.6
20260903074604 0 0.0 0.0 0.00 0.00 0.00 1011.7
20260903073104 0 0.0 0.0 0.00 0.00 0.00 1011.7
20260903071553 0 0.0 0.0 0.00 0.00 0.00 1011.8
20260903070047 0 0.0 0.0 0.00 0.00 0.00 1011.8
20260903064543 0 0.0 0.0 0.00 0.00 0.00 1011.9
20260903063038 0 0.0 0.0 0.00 0.00 0.00 1011.7
20260903061534 0 0.0 0.0 0.00 0.00 0.00 1011.6
20260903060029 0 0.0 0.0 0.00 0.00 0.00 1012.0
20260903054532 0 0.0 0.0 0.00 0.00 0.00 1012.2
20260903053020 0 0.0 0.0 0.00 0.00 0.00 1012.5
20260903051517 0 0.0 0.0 0.00 0.00 0.00 1012.9
20260903050011 0 0.0 0.0 0.00 0.00 0.00 1013.2
20260903044508 0 0.0 0.0 0.00 0.00 0.00 1013.3
20260903043104 0 0.0 0.0 0.00 0.00 0.00 1013.6
20260903041559 0 0.0 0.0 0.00 0.00 0.00 1013.6
20260903040054 77 187 0.0 0.0 0.00 0.00 0.00 1 1013.7
20260903034550 78 188 0.0 0.0 0.00 0.00 0.00 1 1013.7
20260903033045 78 188 0.0 0.0 0.00 0.00 0.00 1 1013.7
20260903031541 78 188 0.0 0.0 0.00 0.00 0.00 1 1013.7
20260903030037 78 188 0.0 0.0 0.00 0.00 0.00 1 1013.7
20260903024532 78 188 0.0 0.0 0.00 0.00 0.00 1 1013.3
20260903023028 78 188 0.0 0.0 0.00 0.00 0.00 1 1013.1
20260903021533 78 188 0.0 0.0 0.00 0.00 0.00 1 1013.2
20260903020018 79 188 0.0 0.0 0.00 0.00 0.00 1 1013.2
20260903014514 79 188 0.0 0.0 0.00 0.00 0.00 1 1013.2
20260903013010 79 188 0.0 0.0 0.00 0.00 0.00 1 1013.2
20260903011506 79 188 0.0 0.0 0.00 0.00 0.00 1 1013.1
20260903010101 80 188 0.0 0.0 0.00 0.00 0.00 1 1012.7
20260903004556 80 188 0.0 0.0 0.00 0.00 0.00 1 1012.7
20260903003052 80 188 0.0 0.0 0.00 0.00 0.00 1 1012.5
20260903001549 80 188 0.0 0.0 0.00 0.00 0.00 1 1012.4
20260903000043 81 189 0.0 0.0 0.00 0.00 0.00 1 1012.4
20260902234539 82 189 0.0 0.0 0.00 0.00 0.00 1 1012.0
20260902233034 82 193 0.0 0.0 0.00 0.00 0.00 11 1011.8
20260902231533 83 183 0.0 0.0 0.00 0.00 0.00 24 1012.0
20260902230028 84 188 0.0 0.0 0.00 0.00 0.00 37 1011.9
20260902224521 85 194 0.0 0.0 0.00 0.00 0.00 47 1012.0
20260902223018 86 191 0.0 0.0 0.00 0.00 0.00 49 1011.7
20260902221517 86 181 0.0 0.0 0.00 0.00 0.00 50 1011.9
20260902220007 86 181 0.0 0.0 0.00 0.00 0.00 51 1011.8
20260902214503 88 181 0.0 0.0 0.00 0.00 0.00 50 1012.0
20260902213107 88 179 0.0 0.0 0.00 0.00 0.00 54 1012.1
20260902211557 89 181 0.0 0.0 0.00 0.00 0.00 58 1012.0
20260902210057 89 186 0.0 0.0 0.00 0.00 0.00 53 1012.0
20260902204545 90 188 0.0 1.0 0.00 0.00 0.00 58 1011.8
20260902203041 90 183 0.0 0.0 0.00 0.00 0.00 55 1011.7
20260902201538 90 190 0.0 0.0 0.00 0.00 0.00 55 1011.9
20260902200034 89 162 0.0 0.0 0.00 0.00 0.00 53 1011.8
20260902194535 89 184 0.0 0.0 0.00 0.00 0.00 56 1012.2
20260902193023 91 179 0.0 0.0 0.00 0.00 0.00 61 1012.5
20260902191524 90 175 0.0 0.0 0.00 0.00 0.00 58 1012.7
20260902190014 89 200 0.0 0.0 0.00 0.00 0.00 55 1012.8
20260902184508 88 192 0.0 0.0 0.00 0.00 0.00 42 1012.9
20260902183005 88 181 0.0 0.0 0.00 0.00 0.00 48 1013.1
20260902181600 87 165 0.0 0.0 0.00 0.00 0.00 40 1013.3
20260902180055 88 171 0.0 0.0 0.00 0.00 0.00 45 1013.3
20260902174551 88 191 0.0 0.0 0.00 0.00 0.00 49 1013.4
20260902173047 86 182 0.0 0.0 0.00 0.00 0.00 30 1013.5
20260902171542 85 176 0.0 0.0 0.00 0.00 0.00 1 1014.0
20260902170038 83 191 0.0 0.0 0.00 0.00 0.00 1 1014.3
20260902164536 82 175 0.0 0.0 0.00 0.00 0.00 1 1014.4
20260902163031 82 167 0.0 0.0 0.00 0.00 0.00 1 1014.5
20260902161527 82 166 0.0 0.0 0.00 0.00 0.00 1 1014.5
20260902160022 83 166 0.0 0.0 0.00 0.00 0.00 1 1014.7